• In Switzerland
  • List of Countries
  • For 7 days
  • Water Temperature
  • Satellite Maps
  • Weather Map
  • Weather Widgets
  • user-avatar
    Login

    Hourly Weather Merzlyakovo

    Today, 17 August, Friday

    Time Temperature Precipitation Wind Pressure Humidity
    00:00 +15°C° 0 mm 1 mps 761 mmHg 89%
    01:00 +14°C° 0 mm 1 mps 761 mmHg 91%
    02:00 +14°C° 0 mm 1 mps 761 mmHg 94%
    03:00 +13°C° 0 mm 1 mps 762 mmHg 95%
    04:00 +13°C° 0 mm 1 mps 762 mmHg 95%
    05:00 +13°C° 0 mm 1 mps 762 mmHg 96%
    06:00 +15°C° 0 mm 1 mps 762 mmHg 90%
    07:00 +18°C° 0 mm 1 mps 762 mmHg 84%
    08:00 +19°C° 0 mm 2 mps 762 mmHg 76%
    09:00 +20°C° 0 mm 2 mps 762 mmHg 71%
    10:00 +21°C° 0 mm 2 mps 762 mmHg 66%
    11:00 +24°C° 0 mm 2 mps 762 mmHg 61%
    12:00 +24°C° 0 mm 2 mps 761 mmHg 59%
    13:00 +25°C° 0 mm 2 mps 761 mmHg 56%
    14:00 +26°C° 0 mm 2 mps 761 mmHg 54%
    15:00 +26°C° 0 mm 2 mps 761 mmHg 56%
    16:00 +25°C° 0 mm 2 mps 760 mmHg 58%
    17:00 +25°C° 0 mm 2 mps 760 mmHg 60%
    18:00 +24°C° 0 mm 2 mps 760 mmHg 67%
    19:00 +21°C° 0 mm 2 mps 760 mmHg 74%
    20:00 +19°C° 0 mm 2 mps 760 mmHg 81%
    21:00 +18°C° 0 mm 2 mps 760 mmHg 83%
    22:00 +17°C° 0 mm 2 mps 760 mmHg 85%
    23:00 +17°C° 0 mm 2 mps 760 mmHg 88%

    Tomorrow, 18 August, Saturday

    Time Temperature Precipitation Wind Pressure Humidity
    00:00 +16°C° 0 mm 2 mps 760 mmHg 89%
    01:00 +16°C° 0 mm 2 mps 760 mmHg 91%
    02:00 +16°C° 0 mm 2 mps 760 mmHg 93%
    03:00 +16°C° 0 mm 2 mps 760 mmHg 94%
    04:00 +15°C° 0 mm 2 mps 760 mmHg 95%
    05:00 +15°C° 0 mm 2 mps 760 mmHg 96%
    06:00 +17°C° 0 mm 2 mps 760 mmHg 91%
    07:00 +19°C° 0 mm 2 mps 760 mmHg 86%
    08:00 +20°C° 0 mm 2 mps 760 mmHg 81%
    09:00 +21°C° 0.3 mm 2 mps 760 mmHg 78%
    10:00 +24°C° 0.3 mm 3 mps 760 mmHg 76%
    11:00 +25°C° 0.3 mm 3 mps 760 mmHg 73%
    12:00 +25°C° 0.5 mm 3 mps 759 mmHg 72%
    13:00 +26°C° 0.5 mm 3 mps 759 mmHg 70%
    14:00 +26°C° 0.5 mm 3 mps 759 mmHg 69%
    15:00 +26°C° 0.2 mm 3 mps 758 mmHg 70%
    16:00 +26°C° 0.2 mm 3 mps 758 mmHg 71%
    17:00 +26°C° 0.2 mm 3 mps 758 mmHg 72%
    18:00 +24°C° 0.1 mm 2 mps 758 mmHg 78%
    19:00 +23°C° 0.1 mm 2 mps 758 mmHg 85%
    20:00 +20°C° 0.1 mm 2 mps 758 mmHg 91%
    21:00 +19°C° 0 mm 2 mps 758 mmHg 92%
    22:00 +19°C° 0 mm 2 mps 758 mmHg 94%
    23:00 +18°C° 0 mm 2 mps 758 mmHg 96%

    Day after tomorrow, 19 August, Sunday

    Time Temperature Precipitation Wind Pressure Humidity
    00:00 +18°C° 0 mm 2 mps 758 mmHg 96%
    01:00 +18°C° 0 mm 2 mps 758 mmHg 96%
    02:00 +17°C° 0 mm 2 mps 758 mmHg 97%
    03:00 +17°C° 0 mm 2 mps 758 mmHg 97%
    04:00 +17°C° 0 mm 2 mps 758 mmHg 97%
    05:00 +16°C° 0 mm 2 mps 758 mmHg 98%
    06:00 +18°C° 0 mm 2 mps 758 mmHg 94%
    07:00 +19°C° 0 mm 2 mps 758 mmHg 90%
    08:00 +20°C° 0 mm 2 mps 758 mmHg 86%
    09:00 +21°C° 0 mm 3 mps 757 mmHg 77%
    10:00 +22°C° 0 mm 3 mps 757 mmHg 67%
    11:00 +23°C° 0 mm 4 mps 757 mmHg 57%
    12:00 +25°C° 0 mm 4 mps 757 mmHg 54%
    13:00 +25°C° 0 mm 4 mps 757 mmHg 51%
    14:00 +26°C° 0 mm 4 mps 756 mmHg 48%
    15:00 +25°C° 0 mm 4 mps 756 mmHg 55%
    16:00 +24°C° 0 mm 3 mps 756 mmHg 62%
    17:00 +24°C° 0 mm 3 mps 756 mmHg 69%
    18:00 +21°C° 0.1 mm 3 mps 756 mmHg 76%
    19:00 +20°C° 0.1 mm 2 mps 756 mmHg 82%
    20:00 +19°C° 0.1 mm 2 mps 756 mmHg 89%
    21:00 +18°C° 0.1 mm 2 mps 756 mmHg 91%
    22:00 +18°C° 0.1 mm 2 mps 756 mmHg 93%
    23:00 +17°C° 0.1 mm 2 mps 756 mmHg 95%

    20 August, Monday

    Time Temperature Precipitation Wind Pressure Humidity
    00:00 +17°C° 0 mm 2 mps 756 mmHg 96%
    01:00 +17°C° 0 mm 2 mps 756 mmHg 96%
    02:00 +16°C° 0 mm 2 mps 756 mmHg 97%
    03:00 +16°C° 0 mm 2 mps 756 mmHg 97%
    04:00 +16°C° 0 mm 2 mps 756 mmHg 97%
    05:00 +16°C° 0 mm 2 mps 756 mmHg 98%
    06:00 +16°C° 0 mm 2 mps 756 mmHg 96%
    07:00 +17°C° 0 mm 2 mps 756 mmHg 94%
    08:00 +18°C° 0 mm 2 mps 756 mmHg 92%
    09:00 +18°C° 0.1 mm 2 mps 756 mmHg 89%
    10:00 +19°C° 0.1 mm 2 mps 756 mmHg 87%
    11:00 +20°C° 0.1 mm 2 mps 756 mmHg 84%
    12:00 +20°C° 0.4 mm 3 mps 756 mmHg 85%
    13:00 +20°C° 0.4 mm 3 mps 756 mmHg 85%
    14:00 +20°C° 0.4 mm 3 mps 756 mmHg 86%
    15:00 +20°C° 0.4 mm 3 mps 756 mmHg 86%
    16:00 +20°C° 0.4 mm 3 mps 755 mmHg 87%
    17:00 +20°C° 0.4 mm 2 mps 755 mmHg 87%
    18:00 +19°C° 0.1 mm 2 mps 755 mmHg 90%
    19:00 +18°C° 0.1 mm 2 mps 755 mmHg 93%
    20:00 +17°C° 0.1 mm 2 mps 755 mmHg 96%
    21:00 +17°C° 0 mm 2 mps 755 mmHg 97%
    22:00 +17°C° 0 mm 2 mps 755 mmHg 97%
    23:00 +16°C° 0 mm 2 mps 755 mmHg 97%

    21 August, Tuesday

    Time Temperature Precipitation Wind Pressure Humidity
    00:00 +16°C° 0.1 mm 2 mps 754 mmHg 97%
    01:00 +18°C° 0.1 mm 1 mps 754 mmHg 98%
    02:00 +18°C° 0.1 mm 1 mps 754 mmHg 98%
    03:00 +17°C° 0.3 mm 2 mps 753 mmHg 98%
    04:00 +17°C° 0.3 mm 2 mps 753 mmHg 97%
    05:00 +17°C° 0.3 mm 3 mps 753 mmHg 97%
    06:00 +17°C° 0.3 mm 3 mps 752 mmHg 96%
    07:00 +18°C° 0.3 mm 3 mps 752 mmHg 95%
    08:00 +18°C° 0.3 mm 3 mps 752 mmHg 94%
    09:00 +19°C° 0.4 mm 4 mps 751 mmHg 92%
    10:00 +19°C° 0.4 mm 4 mps 751 mmHg 91%
    11:00 +20°C° 0.4 mm 4 mps 751 mmHg 89%
    12:00 +20°C° 1.5 mm 4 mps 750 mmHg 90%
    13:00 +20°C° 1.5 mm 4 mps 750 mmHg 90%
    14:00 +20°C° 1.5 mm 5 mps 749 mmHg 91%
    15:00 +19°C° 0.8 mm 5 mps 750 mmHg 91%
    16:00 +19°C° 0.8 mm 5 mps 750 mmHg 91%
    17:00 +19°C° 0.8 mm 5 mps 750 mmHg 91%
    18:00 +18°C° 0.1 mm 4 mps 750 mmHg 92%
    19:00 +15°C° 0.1 mm 4 mps 751 mmHg 93%
    20:00 +14°C° 0.1 mm 3 mps 751 mmHg 95%
    21:00 +13°C° 0 mm 3 mps 752 mmHg 95%
    22:00 +12°C° 0 mm 3 mps 752 mmHg 96%
    23:00 +12°C° 0 mm 3 mps 753 mmHg 97%

    22 August, Wednesday

    Time Temperature Precipitation Wind Pressure Humidity
    00:00 +11°C° 0 mm 3 mps 753 mmHg 97%
    01:00 +12°C° 0 mm 2 mps 754 mmHg 97%
    02:00 +10°C° 0 mm 2 mps 754 mmHg 97%
    03:00 +10°C° 0 mm 2 mps 754 mmHg 97%
    04:00 +10°C° 0 mm 2 mps 755 mmHg 97%
    05:00 +9°C° 0 mm 2 mps 755 mmHg 97%
    06:00 +12°C° 0 mm 2 mps 755 mmHg 94%
    07:00 +13°C° 0 mm 2 mps 756 mmHg 90%
    08:00 +15°C° 0 mm 2 mps 756 mmHg 87%
    09:00 +16°C° 0 mm 2 mps 756 mmHg 77%
    10:00 +18°C° 0 mm 2 mps 756 mmHg 66%
    11:00 +20°C° 0 mm 2 mps 756 mmHg 56%
    12:00 +20°C° 0 mm 2 mps 755 mmHg 56%
    13:00 +21°C° 0 mm 3 mps 755 mmHg 55%
    14:00 +21°C° 0 mm 3 mps 755 mmHg 54%
    15:00 +21°C° 0 mm 3 mps 755 mmHg 60%
    16:00 +20°C° 0 mm 2 mps 754 mmHg 67%
    17:00 +19°C° 0 mm 2 mps 754 mmHg 73%
    18:00 +18°C° 0.4 mm 3 mps 753 mmHg 80%
    19:00 +18°C° 0.4 mm 3 mps 753 mmHg 86%
    20:00 +17°C° 0.4 mm 4 mps 752 mmHg 93%
    21:00 +17°C° 0.5 mm 4 mps 752 mmHg 93%
    22:00 +17°C° 0.5 mm 4 mps 752 mmHg 94%
    23:00 +17°C° 0.5 mm 4 mps 752 mmHg 94%
    Show more